Anoka County, MN

3:17 AM CDT on June 25, 2017 (GMT -0500)
Anoka County / Blaine Airport

Weather History for KANE - December, 2013

Change the Weather History Date:

Sunday, December 22, 2013

  Actual Average Record
Temperature  
Mean Temperature 14 °F -  
Max Temperature 19 °F 22 °F 41 °F (2001)
Min Temperature 10 °F 9 °F -11 °F (2000)
Degree Days  
Heating Degree Days 50    
Moisture  
Dew Point 12 °F    
Average Humidity 87    
Maximum Humidity 93    
Minimum Humidity 79    
Precipitation  
Precipitation 0.00 in - - ()
Sea Level Pressure  
Sea Level Pressure 30.03 in    
Wind  
Wind Speed 7 mph (NW)    
Max Wind Speed 13 mph    
Max Gust Speed -    
Visibility 8 miles    
Events Snow    
Averages and records for this station are not official NWS values.
T = Trace of Precipitation, MM = Missing Value Source: NWS Daily Summary

Daily Weather History Graph

Daily Weather History Graph

Search for Another Location

Airport or City:

Trip Planner

Search our weather history database for the weather conditions in past years. The results will help you decide how hot, cold, wet, or windy it might be!

Date:

Astronomy

Dec. 22, 2013 Rise Set
Actual Time 7:49 AM CST 4:34 PM CST
Civil Twilight 7:15 AM CST 5:08 PM CST
Nautical Twilight 6:37 AM CST 5:45 PM CST
Astronomical Twilight 6:01 AM CST 6:21 PM CST
Moon 10:00 PM CST (12/22) 10:33 AM CST (12/22)
Length of Visible Light 9h 52m
Length of Day
8h 44m
Waning Gibbous, 76% of the Moon is Illuminated
Dec 22
Waning Gibbous
Dec 25
Last Quarter
Jan 1
New
Jan 7
First Quarter
Jan 15
Full

Hourly Weather History & Observations

Time (CST) Temp. Windchill Dew Point Humidity Pressure Visibility Wind Dir Wind Speed Gust Speed Precip Events Conditions
12:14 AM 15.8 °F 6.1 °F 12.2 °F 86% 29.94 in 10.0 mi NNW 6.9 mph - N/A   Overcast
12:34 AM 15.8 °F 10.2 °F 12.2 °F 86% 29.94 in 10.0 mi NNW 3.5 mph - N/A   Overcast
12:54 AM 15.8 °F 8.6 °F 12.2 °F 86% 29.93 in 10.0 mi NNW 4.6 mph - N/A   Overcast
1:14 AM 15.8 °F 5.1 °F 12.2 °F 86% 29.93 in 10.0 mi NW 8.1 mph - N/A   Overcast
1:34 AM 15.8 °F 5.1 °F 12.2 °F 86% 29.94 in 10.0 mi NW 8.1 mph - N/A   Overcast
1:54 AM 15.8 °F 5.1 °F 12.2 °F 86% 29.94 in 10.0 mi NNW 8.1 mph - N/A   Overcast
2:14 AM 15.8 °F 6.1 °F 12.2 °F 86% 29.94 in 10.0 mi NNW 6.9 mph - N/A   Overcast
2:34 AM 15.8 °F 8.6 °F 12.2 °F 86% 29.95 in 10.0 mi NNW 4.6 mph - N/A Snow Light Snow
2:54 AM 15.8 °F 7.2 °F 12.2 °F 86% 29.96 in 10.0 mi NW 5.8 mph - N/A   Overcast
3:14 AM 17.6 °F 9.3 °F 12.2 °F 79% 29.97 in 10.0 mi WNW 5.8 mph - N/A Snow Light Snow
3:33 AM 15.8 °F 8.6 °F 12.2 °F 86% 29.96 in 10.0 mi NW 4.6 mph - N/A Snow Light Snow
3:54 AM 17.6 °F 10.7 °F 14.0 °F 86% 29.96 in 10.0 mi NW 4.6 mph - N/A Snow Light Snow
4:13 AM 17.6 °F 10.7 °F 14.0 °F 86% 29.95 in 10.0 mi WNW 4.6 mph - N/A Snow Light Snow
4:34 AM 15.8 °F 8.6 °F 12.2 °F 86% 29.95 in 10.0 mi NW 4.6 mph - N/A Snow Light Snow
4:53 AM 17.6 °F 8.2 °F 14.0 °F 86% 29.95 in 10.0 mi NW 6.9 mph - N/A Snow Light Snow
5:14 AM 17.6 °F 8.2 °F 14.0 °F 86% 29.95 in 10.0 mi NW 6.9 mph - N/A Snow Light Snow
5:33 AM 17.6 °F 8.2 °F 15.8 °F 93% 29.95 in 10.0 mi NW 6.9 mph - N/A Snow Light Snow
5:54 AM 17.6 °F 7.3 °F 15.8 °F 93% 29.95 in 10.0 mi NW 8.1 mph - N/A Snow Light Snow
6:13 AM 17.6 °F 8.2 °F 15.8 °F 93% 29.95 in 10.0 mi NW 6.9 mph - N/A Snow Light Snow
6:34 AM 19.4 °F 9.5 °F 15.8 °F 86% 29.96 in 10.0 mi NW 8.1 mph - N/A   Overcast
6:54 AM 19.4 °F 9.5 °F 17.6 °F 93% 29.96 in 10.0 mi NW 8.1 mph - N/A Snow Light Snow
7:45 AM 19.4 °F 10.4 °F 15.8 °F 86% 29.97 in 10.0 mi NNW 6.9 mph - N/A Snow Light Snow
8:45 AM 19.4 °F 9.5 °F 17.6 °F 93% 29.97 in 4.0 mi NNW 8.1 mph - N/A Snow Light Snow
9:25 AM 19.4 °F 9.5 °F 17.6 °F 93% 29.99 in 2.8 mi NNW 8.1 mph - N/A Snow Light Snow
9:50 AM 19.4 °F 9.5 °F 17.6 °F 93% 29.99 in 3.2 mi NNW 8.1 mph - N/A Snow Light Snow
10:45 AM 19.4 °F 8.6 °F 15.8 °F 86% 30.01 in 3.0 mi NNW 9.2 mph - N/A Snow Light Snow
11:45 AM 19.4 °F 7.9 °F 15.8 °F 86% 30.01 in 3.2 mi NW 10.4 mph - N/A Snow Light Snow
3:45 PM 19.4 °F 9.5 °F 14.0 °F 80% 30.06 in 4.0 mi WNW 8.1 mph - N/A   Overcast
4:45 PM 17.6 °F 7.3 °F 14.0 °F 86% 30.09 in 4.0 mi WNW 8.1 mph - N/A   Overcast
5:45 PM 15.8 °F 2.7 °F 12.2 °F 86% 30.11 in 3.0 mi WNW 11.5 mph - N/A   Overcast
6:45 PM 12.2 °F 0.7 °F 10.4 °F 92% 30.12 in 4.0 mi WNW 8.1 mph - N/A   Overcast
7:45 PM 12.2 °F -1.0 °F 8.6 °F 85% 30.14 in 7.0 mi West 10.4 mph - N/A   Mostly Cloudy
8:45 PM 10.4 °F -1.5 °F 6.8 °F 85% 30.15 in 7.0 mi West 8.1 mph - N/A   Mostly Cloudy
9:14 PM 10.4 °F -1.5 °F 8.6 °F 92% 30.15 in 7.0 mi West 8.1 mph - N/A Snow Light Snow
9:34 PM 10.4 °F -4.1 °F 6.8 °F 85% 30.16 in 10.0 mi West 11.5 mph - N/A Snow Light Snow
9:54 PM 10.4 °F -4.1 °F 6.8 °F 85% 30.16 in 7.0 mi WNW 11.5 mph - N/A Snow Light Snow
10:14 PM 10.4 °F -4.1 °F 6.8 °F 85% 30.16 in 7.0 mi WNW 11.5 mph - N/A Snow Light Snow
10:34 PM 10.4 °F -3.3 °F 6.8 °F 85% 30.17 in 5.0 mi West 10.4 mph - N/A Snow Light Snow
10:54 PM 10.4 °F -2.4 °F 6.8 °F 85% 30.18 in 4.0 mi West 9.2 mph - N/A Snow Light Snow
11:14 PM 10.4 °F -4.8 °F 6.8 °F 85% 30.18 in 3.0 mi WNW 12.7 mph - N/A Snow Light Snow
11:34 PM 10.4 °F -4.1 °F 6.8 °F 85% 30.19 in 3.0 mi West 11.5 mph - N/A Snow Light Snow
11:54 PM 10.4 °F -2.4 °F 6.8 °F 85% 30.20 in 2.0 mi West 9.2 mph - N/A Snow Light Snow